Погода в Заболе

Иран     31°02′16″N   61°29′42″E
темп.,
°C
ветер,
м/с
пор.,
м/с
влажн.,
%
обл.,
%
осадки,
мм/ч
давл.,
гПа
погр.,
м
8 мая, сб
сб801:30+28сз23240 0.0 100811
04:30+27ссз342833 0.0 100820
07:30+27с583598 0.0 1010230
10:30+33с33208 0.0 1010715
13:30+36сз221313 0.0 10071956
16:30+36ссз33130 0.0 10052403
19:30+34ссз231690 0.0 100518
22:30+29ссз10153297 0.0 1007410
9 мая, вс
вс901:30+26с10164071 0.0 1006354
04:30+24с1320453 0.0 1006391
07:30+25ссз9124362 0.0 1009464
10:30+28ссз12123220 0.0 1009724
13:30+32ссз10102386 0.0 1007976
16:30+33с98202 0.0 10041121
19:30+30сз71028100 0.0 1006307
22:30+26ссз8124223 0.0 1006303
10 мая, пн
пн1001:30+24ссз10154610 0.0 1006335
04:30+24ссз71245100 0.0 1007337
07:30+25с81140100 0.0 1008362
10:30+29ссз88296 0.0 1008788
13:30+32ссз772449 0.0 10061315
16:30+34ссз98217 0.0 10041596
19:30+28сз463599 0.3 1005143
22:30+26сз5737100 0.3 1007172
11 мая, вт
вт1101:30+27сз91534100 0.0 1006506
04:30+25ссз1220330 0.0 1006550
07:30+25ссз1720320 0.0 1008711
10:30+28ссз1617230 0.0 10081031
13:30+32ссз1414162 0.0 10071755
16:30+32ссз1414150 0.0 10051948
19:30+29сз1318200 0.0 1006905
22:30+27ссз15212088 0.0 1007927
12 мая, ср
ср1201:30+25ссз1521180 0.0 1005835
04:30+23ссз1523200 0.0 1006666
07:30+24ссз1620200 0.0 1007775
10:30+29ссз1416120 0.0 10081382
13:30+33ссз141590 0.0 10061993
16:30+33ссз141590 0.0 10042013
19:30+29ссз1319150 0.0 1004803
22:30+28ссз1522170 0.0 1005751